Location: Dos Palmas
(32.4468°N, 116.8732°W)
Time: 04:12:54
(UTC+00:00)

Lacrosse 5 rocket - Pass Details

Date: 20 June 2021
Orbit: 460 x 634 km, 57.0° (Epoch: 29 July)

Event Time Altitude Azimuth Distance (km) Brightness Sun altitude
Rises 04:24:05 0° 239° (WSW) 2,589 5.0 -15.7°
Reaches altitude 10° 04:26:29 10° 250° (WSW) 1,680 4.2 -16.1°
Maximum altitude 04:29:50 30° 313° (NW) 886 3.2 -16.6°
Drops below altitude 10° 04:33:04 10° 16° (NNE) 1,628 4.1 -17.1°
Sets 04:35:22 0° 28° (NNE) 2,493 4.9 -17.5°
